KF0KFL-13 Weather Reports


Display with metric or nautical units.
time (UTC)temp
F
wind
direction
speed
MPH
gust
MPH
rain 1hr
in
rain 24hr
in
rain mn
in
humidity
%
barometer
mb
20260504081142 55 168 0.0 2.0 0.00 0.00 0.00 48 997.5
20260504050748 54 137 1.0 1.0 0.00 0.00 0.00 47 1001.3
20260504050432 53 139 1.0 2.0 0.00 0.00 0.00 49 1001.0
20260504045455 53 137 1.0 1.0 0.00 0.00 0.00 51 1001.3
20260504044736 53 135 1.0 1.0 0.00 0.00 0.00 51 1001.5
20260504044554 53 136 1.0 1.0 0.00 0.00 0.00 52 1001.7
20260504044308 53 136 1.0 1.0 0.00 0.00 0.00 51 1001.6
20260504043841 53 136 1.0 1.0 0.00 0.00 0.00 52 1001.7
20260504041811 53 0 0.0 0.0 0.00 0.00 0.00 51 1002.1
20260504035741 53 127 0.0 1.0 0.00 0.00 0.00 52 1002.6
20260504033711 53 0 0.0 0.0 0.00 0.00 0.00 52 1002.8
20260504031641 55 139 1.0 1.0 0.00 0.00 0.00 48 1003.2
20260504025611 56 124 1.0 1.0 0.00 0.00 0.00 44 1003.5
20260504023541 59 144 1.0 1.0 0.00 0.00 0.00 37 1003.4
20260504021511 60 135 1.0 1.0 0.00 0.00 0.00 39 1003.5
20260504015441 62 129 1.0 1.0 0.00 0.00 0.00 34 1003.5
20260504013411 63 144 0.0 1.0 0.00 0.00 0.00 31 1003.8
20260504011341 64 94 0.0 1.0 0.00 0.00 0.00 31 1004.0
20260504005341 65 22 0.0 2.0 0.00 0.00 0.00 28 1003.8
20260504003311 66 39 1.0 2.0 0.00 0.00 0.00 28 1003.9
20260504001241 67 74 1.0 1.0 0.00 0.00 0.00 27 1004.0
20260503235241 68 48 2.0 4.0 0.00 0.00 0.00 25 1003.9
20260503233211 69 56 2.0 4.0 0.00 0.00 0.00 25 1003.9
20260503231141 70 74 0.0 1.0 0.00 0.00 0.00 23 1004.2
20260503225111 70 13 3.0 10.0 0.00 0.00 0.00 23 1004.2
20260503223111 70 16 3.0 8.0 0.00 0.00 0.00 23 1004.4
20260503221111 69 44 0.0 3.0 0.00 0.00 0.00 24 1004.7
20260503215041 69 353 4.0 7.0 0.00 0.00 0.00 24 1004.9
20260503213011 69 356 4.0 8.0 0.00 0.00 0.00 23 1004.9
20260503210941 69 351 5.0 9.0 0.00 0.00 0.00 24 1005.0
20260503204910 71 19 3.0 8.0 0.00 0.00 0.00 24 1005.3
20260503202934 70 357 4.0 7.0 0.00 0.00 0.00 26 1005.3
20260503202840 70 357 4.0 7.0 0.00 0.00 0.00 26 1005.3
20260503200810 70 9 4.0 9.0 0.00 0.00 0.00 29 1005.3
20260503194740 69 360 4.0 8.0 0.00 0.00 0.00 26 1005.5
20260503192740 69 4 6.0 11.0 0.00 0.00 0.00 25 1005.8
20260503190740 69 9 5.0 11.0 0.00 0.00 0.00 26 1005.7
20260503184710 69 10 5.0 9.0 0.00 0.00 0.00 28 1006.1
20260503182640 68 18 5.0 9.0 0.00 0.00 0.00 35 1005.8
20260503180640 68 15 4.0 9.0 0.00 0.00 0.00 34 1006.2
20260503174610 67 16 4.0 9.0 0.00 0.00 0.00 35 1006.2
20260503172540 67 11 5.0 9.0 0.00 0.00 0.00 38 1006.3
20260503170510 66 4 5.0 10.0 0.00 0.00 0.00 40 1006.2
20260503150240 61 19 4.0 13.0 0.00 0.00 0.00 47 1005.9
20260503140210 58 27 3.0 6.0 0.00 0.00 0.00 51 1005.7
20260503130109 55 53 1.0 3.0 0.00 0.00 0.00 50 1005.4